TimeMDT,TemperatureF,Dew PointF,Humidity,Sea Level PressureIn,VisibilityMPH,Wind Direction,Wind SpeedMPH,Gust SpeedMPH,PrecipitationIn,Events,Conditions,WindDirDegrees,DateUTC
12:53 AM,59.0,39.9,49,29.80,10.0,NNW,5.8,-,N/A,,Overcast,340,2013-05-17 06:53:00
1:53 AM,57.9,37.9,47,29.79,10.0,NNW,8.1,-,N/A,,Overcast,340,2013-05-17 07:53:00
2:53 AM,57.9,37.9,47,29.78,10.0,North,4.6,-,N/A,,Overcast,360,2013-05-17 08:53:00
3:53 AM,57.0,39.0,51,29.78,10.0,NW,5.8,-,N/A,,Overcast,310,2013-05-17 09:53:00
4:53 AM,55.9,41.0,57,29.79,10.0,WNW,6.9,-,0.00,,Overcast,290,2013-05-17 10:53:00
5:53 AM,55.4,41.0,58,29.84,10.0,West,5.8,-,N/A,,Overcast,280,2013-05-17 11:53:00
6:53 AM,55.9,42.1,60,29.81,10.0,WNW,8.1,-,N/A,,Overcast,300,2013-05-17 12:53:00
7:53 AM,55.9,43.0,62,29.83,10.0,West,6.9,-,N/A,,Overcast,260,2013-05-17 13:53:00
8:53 AM,54.0,46.0,75,29.85,10.0,Calm,Calm,-,0.00,,Overcast,0,2013-05-17 14:53:00
9:53 AM,57.0,44.1,62,29.85,10.0,NW,4.6,-,N/A,,Overcast,320,2013-05-17 15:53:00
10:53 AM,57.9,43.0,58,29.85,10.0,NW,12.7,-,N/A,,Overcast,310,2013-05-17 16:53:00
11:53 AM,59.0,45.0,60,29.86,10.0,WNW,9.2,-,N/A,,Overcast,300,2013-05-17 17:53:00
12:53 PM,60.8,44.6,55,29.89,10.0,WNW,10.4,-,N/A,,Overcast,300,2013-05-17 18:53:00
1:53 PM,61.0,45.0,56,29.86,10.0,WNW,11.5,20.7,N/A,,Overcast,290,2013-05-17 19:53:00
2:53 PM,64.0,44.1,48,29.86,10.0,North,10.4,-,N/A,,Scattered Clouds,360,2013-05-17 20:53:00
3:53 PM,66.0,43.0,43,29.84,10.0,NNW,11.5,16.1,N/A,,Mostly Cloudy,330,2013-05-17 21:53:00
4:53 PM,64.9,41.0,42,29.83,10.0,NW,11.5,17.3,N/A,,Partly Cloudy,310,2013-05-17 22:53:00
5:53 PM,64.9,45.0,48,29.83,10.0,NW,11.5,19.6,N/A,,Scattered Clouds,320,2013-05-17 23:53:00
6:53 PM,64.0,43.0,46,29.83,10.0,NNW,10.4,-,N/A,,Partly Cloudy,330,2013-05-18 00:53:00
7:53 PM,63.0,43.0,48,29.83,10.0,NW,13.8,-,N/A,,Clear,320,2013-05-18 01:53:00
8:53 PM,61.0,44.1,54,29.85,10.0,WNW,13.8,-,N/A,,Clear,300,2013-05-18 02:53:00
9:53 PM,57.9,44.1,60,29.89,10.0,WNW,13.8,-,N/A,,Partly Cloudy,300,2013-05-18 03:53:00
10:53 PM,57.0,43.0,59,29.91,10.0,WNW,8.1,-,N/A,,Clear,300,2013-05-18 04:53:00
11:53 PM,55.0,43.0,64,29.92,10.0,WNW,6.9,-,N/A,,Clear,300,2013-05-18 05:53:00